Погода в Сан-Луисе

Бразилия     2°29′57″S   44°16′32″W
темп.,
°C
ветер,
м/с
пор.,
м/с
влажн.,
%
обл.,
%
осадки,
мм/ч
давл.,
гПа
погр.,
м
27 февраля, сб
сб2700:00+27св4784100 1.8 1010530
03:00+26св5785100 4.4 1009547
06:00+26всв4684100 4.2 1009415
09:00+28всв578093 5.4 1011837
12:00+28св567960 2.9 1011855
15:00+28св677970 5.0 1007819
18:00+27св5784100 0.8 1008644
21:00+26св5784100 1.0 1010635
28 февраля, вс
вс2800:00+26св578497 1.2 1010574
03:00+26св458699 4.1 1008463
06:00+26св5687100 4.5 1008440
09:00+27всв568286 10.1 1010598
12:00+27всв567960 5.0 1009740
15:00+27всв578279 12.0 1007715
18:00+26всв5884100 3.3 1006658
21:00+26в4785100 3.3 1008603
1 марта, пн
пн100:00+26в4786100 0.0 1008545
03:00+26всв4684100 0.1 1006526
06:00+26в458476 0.8 1007484
09:00+27всв467957 3.3 1008894
12:00+28всв688055 4.4 1008836
15:00+28всв797964 8.4 1005998
18:00+27всв698178 0.1 1006772
21:00+27всв598189 0.1 1008774
2 марта, вт
вт200:00+27всв598296 0.1 1008701
03:00+26в588298 0.9 1007632
06:00+26в488498 0.2 1007582
09:00+28в697666 0.3 10101170
12:00+28всв897744 0.6 10101062
15:00+28всв897630 2.1 10071061
18:00+27всв6108294 1.0 1008782
21:00+27всв7108297 1.8 1010897
3 марта, ср
ср300:00+27всв7108198 0.4 1011901
03:00+26всв6108299 1.5 1009761
06:00+26всв6982100 0.6 1010765
09:00+28всв687773 0.6 10131018
12:00+28св78770 0.7 1012909
15:00+28всв79763 1.9 10091013
18:00+27всв698113 0.2 1009742
21:00+27всв588226 0.5 1011675